This is the latest recevied weather packets stored in our database for station/object WA9NNN-10. If no packets are shown the sender has not sent any weather packets the latest 10 day(s).
| Time | Temp. | Humidity | Pressure | Rain* | Wind** | Luminosity | Snow |
|---|---|---|---|---|---|---|---|
| 1788382411 | 36.67° C | 46% | 1012.7 hPa | 0 mm | - | - | - |
| 1788381811 | 36.67° C | 45% | 1012.7 hPa | 0 mm | - | - | - |
| 1788381211 | 37.22° C | 45% | 1012.7 hPa | 0 mm | - | - | - |
| 1788380611 | 37.78° C | 47% | 1012.7 hPa | 0 mm | - | - | - |
| 1788380011 | 37.78° C | 44% | 1012.8 hPa | 0 mm | - | - | - |
| 1788379411 | 37.78° C | 45% | 1012.8 hPa | 0 mm | - | - | - |
| 1788379111 | 37.78° C | 45% | 1012.9 hPa | 0 mm | - | - | - |
| 1788377011 | 38.33° C | 45% | 1013.1 hPa | 0 mm | - | - | - |
| 1788375811 | 37.22° C | 46% | 1013.2 hPa | 0 mm | - | - | - |
| 1788375511 | 37.22° C | 46% | 1013.3 hPa | 0 mm | - | - | - |
| 1788375211 | 37.22° C | 46% | 1013.3 hPa | 0 mm | - | - | - |
| 1788374911 | 37.78° C | 45% | 1013.2 hPa | 0 mm | - | - | - |
| 1788374611 | 38.33° C | 43% | 1013.2 hPa | 0 mm | - | - | - |
| 1788374311 | 38.89° C | 43% | 1013.2 hPa | 0 mm | - | - | - |
| 1788374011 | 38.89° C | 45% | 1013.3 hPa | 0 mm | - | - | - |
| 1788373711 | 38.33° C | 44% | 1013.4 hPa | 0 mm | - | - | - |
| 1788373411 | 38.33° C | 45% | 1013.4 hPa | 0 mm | - | - | - |
| 1788373111 | 38.33° C | 45% | 1013.5 hPa | 0 mm | - | - | - |
| 1788372811 | 38.33° C | 45% | 1013.5 hPa | 0 mm | - | - | - |
| 1788372511 | 38.89° C | 44% | 1013.5 hPa | 0 mm | - | - | - |
| 1788372211 | 38.89° C | 44% | 1013.4 hPa | 0 mm | - | - | - |
| 1788371912 | 38.89° C | 44% | 1013.4 hPa | 0 mm | - | - | - |
| 1788371611 | 38.33° C | 44% | 1013.5 hPa | 0 mm | - | - | - |
| 1788371311 | 38.89° C | 43% | 1013.6 hPa | 0 mm | - | - | - |
| 1788371011 | 38.89° C | 44% | 1013.7 hPa | 0 mm | - | - | - |
* Rain latest hour (hover to see other rain measurements)
** Current wind speed in m/s (hover to see current wind gust speed)